Location: ??
(34.9170°N, 135.5016°E)
Time: 10:39:16
(UTC+00:00)

X-37B - Pass Details

Date: 26 January 2021
Orbit: 383 x 391 km, 45.0° (Epoch: 27 February)

Event Time Altitude Azimuth Distance (km) Brightness Sun altitude
Rises 08:49:37 0° 297° (WNW) 2,270 5.2 -6.4°
Reaches altitude 10° 08:52:30 10° 326° (NNW) 1,418 3.6 -7.0°
Maximum altitude 08:54:10 13° 358° (N) 1,235 3.0 -7.3°
Drops below altitude 10° 08:55:50 10° 29° (NNE) 1,420 3.0 -7.6°
Enters shadow 08:56:41 - 41° (NE) 1,625 3.2 -7.8°
